KC0RKM-13 Weather Reports


time (UTC)temp
F
wind
direction
speed
knots
gust
knots
rain 1hr
in
rain 24hr
in
rain mn
in
humidity
%
barometer
mb
20260906182004 96 234 0.0 2.6 0.00 0.02 0.00 46 1013.0
20260906181003 96 252 3.5 4.3 0.00 0.02 0.00 47 1013.5
20260906180003 95 264 1.7 3.5 0.00 0.02 0.00 47 1013.7
20260906175003 94 255 0.0 2.6 0.00 0.02 0.00 48 1014.0
20260906174004 93 265 1.7 2.6 0.00 0.02 0.00 50 1014.2
20260906173003 93 99 0.0 1.7 0.00 0.02 0.00 50 1014.3
20260906172003 93 243 0.0 1.7 0.00 0.02 0.00 53 1014.4
20260906171004 93 119 0.0 1.7 0.00 0.02 0.00 52 1014.5
20260906170003 93 200 0.0 1.7 0.00 0.02 0.00 51 1014.4
20260906165003 92 161 0.0 0.9 0.00 0.02 0.00 53 1014.7
20260906164003 92 148 0.0 2.6 0.00 0.02 0.00 54 1015.0
20260906163003 91 49 0.9 3.5 0.00 0.02 0.00 54 1015.0
20260906162004 90 147 0.9 1.7 0.00 0.02 0.00 56 1015.1
20260906161003 90 124 0.9 1.7 0.00 0.02 0.00 54 1015.1
20260906160004 91 217 0.0 2.6 0.00 0.02 0.00 54 1014.9
20260906155004 91 152 0.9 2.6 0.00 0.02 0.00 52 1015.0
20260906154003 92 154 0.0 3.5 0.00 0.02 0.00 51 1014.6
20260906153003 91 0 0.0 1.7 0.00 0.02 0.00 54 1014.6
20260906152003 90 141 1.7 3.5 0.00 0.02 0.00 54 1014.4
20260906151003 90 143 0.9 1.7 0.00 0.02 0.00 55 1014.4
20260906150004 90 64 0.0 1.7 0.00 0.02 0.00 55 1014.4
20260906145003 89 0 0.0 1.7 0.00 0.02 0.00 55 1014.7
20260906144004 88 161 1.7 4.3 0.00 0.02 0.00 56 1014.6
20260906143003 88 164 1.7 2.6 0.00 0.02 0.00 57 1014.5
20260906142004 87 112 0.9 1.7 0.00 0.02 0.00 57 1015.0
20260906141003 86 155 0.9 2.6 0.00 0.02 0.00 59 1014.7
20260906140003 85 90 0.0 0.9 0.00 0.02 0.00 62 1014.8
20260906135005 84 92 0.9 2.6 0.00 0.02 0.00 63 1015.0
20260906134003 83 108 0.0 1.7 0.00 0.02 0.00 65 1014.9
20260906133003 84 67 0.0 1.7 0.00 0.02 0.00 65 1014.6
20260906132003 84 81 0.0 0.9 0.00 0.02 0.00 64 1014.4
20260906131004 85 0 0.0 0.0 0.00 0.02 0.00 63 1014.5
20260906130002 83 0 0.0 0.0 0.00 0.02 0.00 64 1014.4
20260906125004 81 0 0.0 0.0 0.00 0.02 0.00 70 1014.4
20260906124003 79 0 0.0 0.0 0.00 0.02 0.00 74 1014.3
20260906122004 77 0 0.0 0.9 0.00 0.02 0.00 76 1014.3
20260906121003 77 0 0.0 0.9 0.00 0.02 0.00 76 1014.2
20260906120003 77 68 0.0 0.9 0.00 0.02 0.00 76 1014.2
20260906115004 77 0 0.0 0.0 0.00 0.02 0.00 76 1014.3
20260906114003 76 0 0.0 0.0 0.00 0.02 0.00 76 1014.1
20260906113003 75 0 0.0 0.0 0.00 0.02 0.00 79 1014.2
20260906112003 74 0 0.0 0.0 0.00 0.02 0.00 81 1014.1
20260906111004 74 0 0.0 0.0 0.00 0.02 0.00 82 1014.2
20260906110003 74 314 0.0 0.9 0.00 0.02 0.00 82 1014.0
20260906105004 75 0 0.0 0.0 0.00 0.02 0.00 82 1014.2
20260906104003 75 331 0.9 0.9 0.00 0.02 0.00 81 1014.1
20260906103004 75 0 0.0 1.7 0.00 0.02 0.00 80 1014.1
20260906102004 76 0 0.0 0.0 0.00 0.02 0.00 79 1014.0
20260906101003 76 0 0.0 0.0 0.00 0.02 0.00 78 1013.9
20260906100003 77 0 0.0 0.0 0.00 0.02 0.00 76 1013.8
20260906095003 77 352 0.0 0.9 0.00 0.02 0.00 76 1013.8
20260906094004 77 0 0.0 0.0 0.00 0.02 0.00 77 1013.7
20260906093004 77 0 0.0 0.0 0.00 0.02 0.00 77 1013.6
20260906092003 78 0 0.0 0.9 0.00 0.02 0.00 75 1013.6
20260906091004 77 0 0.0 0.0 0.00 0.02 0.00 77 1013.5
20260906090004 77 0 0.0 0.0 0.00 0.02 0.00 77 1013.4
20260906085003 78 0 0.0 0.0 0.00 0.02 0.00 75 1013.1
20260906084004 79 0 0.0 0.0 0.00 0.02 0.00 73 1013.3
20260906083004 78 0 0.0 0.0 0.00 0.02 0.00 73 1013.1
20260906082004 78 0 0.0 0.0 0.00 0.02 0.00 74 1013.2
20260906081003 78 0 0.0 0.0 0.00 0.02 0.00 74 1013.1
20260906080003 78 0 0.0 0.0 0.00 0.02 0.00 73 1013.1
20260906075004 78 0 0.0 0.0 0.00 0.02 0.00 75 1013.2
20260906074003 78 0 0.0 0.0 0.00 0.02 0.00 77 1013.1
20260906073003 78 0 0.0 0.0 0.00 0.02 0.00 75 1013.3
20260906072003 77 0 0.0 0.0 0.04 0.02 0.00 75 1013.3
20260906071004 79 0 0.0 0.0 0.07 0.00 0.00 76 1013.2
20260906070004 80 0 0.0 0.0 0.00 0.00 0.00 73 1013.3
20260906065004 81 0 0.0 0.0 0.00 0.00 0.00 70 1013.6
20260906064004 82 0 0.0 0.0 0.00 0.00 0.00 67 1013.2
20260906063004 82 0 0.0 0.0 0.00 0.00 0.00 67 1013.5
20260906062003 82 0 0.0 0.0 0.00 0.00 0.00 65 1013.3
20260906061004 83 115 0.0 1.7 0.00 0.00 0.00 65 1013.3
20260906060004 83 145 0.0 0.9 0.00 0.00 0.00 65 1013.4
20260906055004 83 0 0.0 0.0 0.00 0.00 0.00 64 1013.4
20260906054004 84 0 0.0 0.0 0.00 0.00 0.00 63 1013.5
20260906053004 84 126 0.9 1.7 0.00 0.00 0.00 63 1013.1
20260906052003 84 152 0.9 1.7 0.00 0.00 0.00 63 1013.5
20260906051003 84 0 0.0 0.0 0.00 0.00 0.00 64 1013.5
20260906050003 84 0 0.0 0.0 0.00 0.00 0.00 64 1013.5
20260906045003 84 0 0.0 0.0 0.00 0.00 0.00 63 1013.3
20260906044004 84 0 0.0 0.0 0.00 0.00 0.00 63 1013.5
20260906043004 85 0 0.0 0.0 0.00 0.00 0.00 62 1013.3
20260906042003 85 0 0.0 0.0 0.00 0.00 0.00 61 1013.3
20260906041003 85 133 0.0 0.9 0.00 0.00 0.00 61 1013.3
20260906040003 86 0 0.0 0.9 0.00 0.00 0.00 61 1013.0
20260906035004 86 0 0.0 0.0 0.00 0.00 0.00 60 1013.1
20260906034003 86 139 0.9 1.7 0.00 0.00 0.00 58 1013.0
20260906033003 87 136 0.9 1.7 0.00 0.00 0.00 57 1012.7
20260906032003 88 0 0.0 0.9 0.00 0.00 0.00 56 1012.6
20260906031004 88 0 0.0 0.9 0.00 0.00 0.00 56 1012.6
20260906030004 89 0 0.0 0.9 0.00 0.00 0.00 55 1012.2
20260906025003 89 89 0.9 3.5 0.00 0.00 0.00 53 1012.3
20260906024003 90 50 1.7 3.5 0.00 0.00 0.00 53 1012.1
20260906023003 89 139 0.9 2.6 0.00 0.00 0.00 53 1011.9
20260906022004 90 93 0.0 1.7 0.00 0.00 0.00 53 1011.8
20260906021003 90 76 1.7 3.5 0.00 0.00 0.00 52 1011.6
20260906020003 90 37 0.9 2.6 0.00 0.00 0.00 52 1011.5
20260906015003 90 66 0.0 1.7 0.00 0.00 0.00 51 1011.2
20260906014004 90 0 0.0 0.9 0.00 0.00 0.00 50 1011.2
20260906013005 90 79 0.9 1.7 0.00 0.00 0.00 48 1011.1
20260906012004 89 0 0.0 0.9 0.00 0.00 0.00 52 1011.2
20260906011004 90 0 0.0 0.0 0.00 0.00 0.00 50 1010.9
20260906010004 91 0 0.0 0.0 0.00 0.00 0.00 50 1010.5
20260906005004 92 0 0.0 0.0 0.00 0.00 0.00 47 1010.7
20260906004003 93 0 0.0 0.0 0.00 0.00 0.00 45 1010.8
20260906003003 93 0 0.0 0.9 0.00 0.00 0.00 44 1011.1
20260906002003 94 0 0.0 0.9 0.00 0.00 0.00 43 1010.5
20260906001003 96 0 0.0 0.0 0.00 0.00 0.00 44 1010.6
20260906000003 97 0 0.0 0.0 0.00 0.00 0.00 41 1010.4
20260905235004 97 239 0.0 0.9 0.00 0.00 0.00 38 1010.4
20260905234003 98 0 0.0 0.9 0.00 0.00 0.00 36 1010.5
20260905233003 98 0 0.0 1.7 0.00 0.00 0.00 35 1010.5
20260905232004 98 0 0.0 0.0 0.00 0.00 0.00 35 1010.6
20260905231003 99 227 1.7 2.6 0.00 0.00 0.00 33 1010.3
20260905230003 99 253 0.0 2.6 0.00 0.00 0.00 34 1010.0
20260905225003 100 248 0.9 1.7 0.00 0.00 0.00 32 1010.0
20260905224004 100 134 0.0 4.3 0.00 0.00 0.00 34 1010.0
20260905223003 100 169 0.0 3.5 0.00 0.00 0.00 32 1010.1
20260905222004 100 158 0.0 0.9 0.00 0.00 0.00 33 1010.6
20260905221003 101 0 0.0 0.9 0.00 0.00 0.00 32 1010.3
20260905220003 100 258 1.7 3.5 0.00 0.00 0.00 32 1010.5
20260905215003 101 246 0.9 3.5 0.00 0.00 0.00 31 1010.5
20260905214004 101 93 0.9 2.6 0.00 0.00 0.00 32 1010.6
20260905213003 101 129 1.7 4.3 0.00 0.00 0.00 33 1010.5
20260905212004 101 47 1.7 3.5 0.00 0.00 0.00 33 1010.7
20260905211003 101 281 1.7 2.6 0.00 0.00 0.00 32 1010.9
20260905210003 101 136 1.7 2.6 0.00 0.00 0.00 33 1010.8
20260905205003 101 157 0.0 2.6 0.00 0.00 0.00 33 1011.1
20260905204004 102 0 0.0 2.6 0.00 0.00 0.00 34 1011.1
20260905203004 101 242 0.9 2.6 0.00 0.00 0.00 33 1011.5
20260905202003 100 126 1.7 2.6 0.00 0.00 0.00 33 1011.5
20260905201004 101 189 1.7 3.5 0.00 0.00 0.00 34 1011.5
20260905200004 101 0 0.0 2.6 0.00 0.00 0.00 35 1011.9
20260905195004 100 244 1.7 5.2 0.00 0.00 0.00 35 1012.0
20260905194004 100 294 2.6 4.3 0.00 0.00 0.00 35 1011.9
20260905193004 101 239 2.6 5.2 0.00 0.00 0.00 35 1011.9
20260905192004 99 80 0.9 2.6 0.00 0.00 0.00 36 1012.3
20260905191003 100 239 0.9 4.3 0.00 0.00 0.00 36 1012.0
20260905190004 100 245 1.7 3.5 0.00 0.00 0.00 35 1012.2
20260905185003 99 244 0.0 2.6 0.00 0.00 0.00 38 1012.6
20260905184003 99 202 3.5 5.2 0.00 0.00 0.00 36 1012.6
20260905183003 98 276 3.5 7.8 0.00 0.00 0.00 37 1012.6